Вернуться в каталог

TIANMU-1 22

АктивенПогодаSSO
NORAD 58663·PAYLOAD·🇨🇳 China

Запущен Dec 27, 2023 с Jiuquan Satellite Launch Center

Loading…

Ближайшие Пролёты (ближайшие 24 часа)

TLE

СвежийSource: Space-Track

Эпоха: Sep 14, 2026, 13:51 UTC

1 58663U 23208D   26257.57768341  .00006345  00000-0  20676-3 0  9998
2 58663  97.4575  14.3033 0004274  41.6974 318.4592 15.32175640151013

Отслеживайте TIANMU-1 22 в реальном времени с AllMySat

Download on the App Store